User: anonymous   Login
Location: Bagnara
(41.0500°N, 14.7833°E)
Time: 23:09:20
(UTC+00:00)
Language:

TIMED - Orbit

View from above orbital plane
View from above orbital plane
View from above satellite
View from above satellite

Ground track
Ground track

The orbit data is extracted from the following two-line orbital elements,

1 26998U 01055B   21269.77473397  .00000273  00000-0  33502-4 0  9991
2 26998  74.0710  84.7833 0000976 334.6415  25.4717 14.88349628 73915
Epoch (UTC): 26 September 2021 18:35:37
Eccentricity: 0.0000976
inclination: 74.0710°
perigee height: 602 km
apogee height: 604 km
right ascension of ascending node: 84.7833°
argument of perigee: 334.6415°
revolutions per day: 14.88349628
mean anomaly at epoch: 25.4717°
orbit number at epoch: 7391

The dashed part of the orbit path shows where the satellite is in the earth's shadow,  

DLR